Tracking 19644 objects as of 24-Apr-2019
HD Live streaming from Space Station
objects crossing your sky now

THORAD AGENA D DEB

Track THORAD AGENA D DEB now!
10-day predictions


NORAD ID: 4772
Int'l Code: 1970-025DS
Perigee: 1,034.3 km
Apogee: 1,316.3 km
Inclination: 99.8 °
Period: 108.7 minutes
Semi major axis: 7546 km
RCS: 0.0697 m2 (small)
Launch date: April 8, 1970
Source: United States (US)
Launch site: AIR FORCE WESTERN TEST RANGE (AFWTR)

Note: This is SATELLITE DEBRIS
aabbcc
Your satellite tracking list
Your tracking list is empty




NASA's NSSDC Master Catalog

Two Line Element Set (TLE):
1  4772U 70025DS  19113.32242948 +.00000063 +00000-0 +22191-3 0  9990
2  4772 099.8372 029.6114 0186846 007.7259 105.8287 13.24350050356206
Source of the keplerian elements: AFSPC